カタログに戻る

DMSP 5D-3 F17 DEB

運用中SSO
NORAD 29637·DEBRIS·🇺🇸 United States

打ち上げ Nov 4, 2006 から Vandenberg Space Force Base

Loading…

次のパス (今後24時間)

TLE

最新Source: Space-Track

元期: Sep 14, 2026, 09:52 UTC

1 29637U 06050BV  26257.41140059  .00002472  00000-0  72415-3 0  9991
2 29637  98.5093 302.3358 0008081 183.1195 176.9947 14.44780221 28064

AllMySatでDMSP 5D-3 F17 DEBをリアルタイム追跡

Download on the App Store